| time (UTC) | temp C | wind direction | speed KPH | gust KPH | rain 1hr cm | rain 24hr cm | rain mn cm | humidity % | barometer mb |
| 20260504141251 | 11 | 209 | 8.0 | 19.3 | 0.00 | 0.00 | 0.00 | 64 | 1018.2 |
| 20260504140743 | 11 | 251 | 9.7 | 19.3 | 0.00 | 0.00 | 0.00 | 61 | 1018.4 |
| 20260504140238 | 11 | 299 | 9.7 | 24.1 | 0.00 | 0.00 | 0.00 | 59 | 1018.2 |
| 20260504130133 | 10 | 212 | 4.8 | 11.3 | 0.00 | 0.00 | 0.00 | 67 | 1017.5 |
| 20260504120108 | 3 | 44 | 1.6 | 4.8 | 0.00 | 0.00 | 0.00 | 86 | 1018.1 |
| 20260504110318 | 1 | 65 | 1.6 | 3.2 | 0.00 | 0.00 | 0.00 | 85 | 1016.1 |
| 20260504100103 | 0 | 146 | 0.0 | 0.0 | 0.00 | 0.00 | 0.00 | 84 | 1016.3 |
| 20260504081728 | 0 | 146 | 0.0 | 0.0 | 0.00 | 0.00 | 0.00 | 83 | 1016.6 |
| 20260504081603 | 0 | 146 | 0.0 | 0.0 | 0.00 | 0.00 | 0.00 | 83 | 1017.7 |
| 20260504081217 | 0 | 146 | 0.0 | 0.0 | 0.00 | 0.00 | 0.00 | 83 | 1016.4 |
| 20260504080706 | 0 | 146 | 0.0 | 0.0 | 0.00 | 0.00 | 0.00 | 83 | 1016.1 |
| 20260504080156 | 0 | 146 | 0.0 | 0.0 | 0.00 | 0.00 | 0.00 | 83 | 1016.0 |
| 20260504050702 | 2 | 146 | 0.0 | 0.0 | 0.00 | 0.00 | 0.00 | 78 | 1016.8 |
| 20260504050152 | 2 | 146 | 0.0 | 0.0 | 0.00 | 0.00 | 0.00 | 78 | 1016.9 |
| 20260504045647 | 2 | 146 | 0.0 | 0.0 | 0.00 | 0.00 | 0.00 | 78 | 1016.9 |
| 20260504045409 | 2 | 146 | 0.0 | 0.0 | 0.00 | 0.00 | 0.00 | 78 | 1016.9 |
| 20260504044633 | 2 | 146 | 0.0 | 0.0 | 0.00 | 0.00 | 0.00 | 78 | 1016.9 |
| 20260504044626 | 2 | 146 | 0.0 | 0.0 | 0.00 | 0.00 | 0.00 | 78 | 1016.9 |
| 20260504044506 | 2 | 146 | 0.0 | 0.0 | 0.00 | 0.00 | 0.00 | 78 | 1018.1 |
| 20260504043610 | 2 | 146 | 0.0 | 0.0 | 0.00 | 0.00 | 0.00 | 77 | 1016.8 |
| 20260504043108 | 2 | 146 | 0.0 | 0.0 | 0.00 | 0.00 | 0.00 | 77 | 1016.8 |
| 20260504043046 | 2 | 146 | 0.0 | 0.0 | 0.00 | 0.00 | 0.00 | 77 | 1017.9 |
| 20260504042557 | 2 | 146 | 0.0 | 0.0 | 0.00 | 0.00 | 0.00 | 76 | 1016.8 |
| 20260504042317 | 2 | 146 | 0.0 | 0.0 | 0.00 | 0.00 | 0.00 | 76 | 1016.8 |
| 20260504041533 | 2 | 146 | 0.0 | 0.0 | 0.00 | 0.00 | 0.00 | 76 | 1016.7 |
| 20260504041511 | 2 | 146 | 0.0 | 0.0 | 0.00 | 0.00 | 0.00 | 76 | 1017.8 |
| 20260504041029 | 2 | 146 | 0.0 | 0.0 | 0.00 | 0.00 | 0.00 | 76 | 1016.9 |
| 20260504040750 | 2 | 146 | 0.0 | 0.0 | 0.00 | 0.00 | 0.00 | 75 | 1016.9 |
| 20260504040049 | 2 | 146 | 0.0 | 0.0 | 0.00 | 0.00 | 0.00 | 75 | 1017.9 |
| 20260504040010 | 2 | 146 | 0.0 | 0.0 | 0.00 | 0.00 | 0.00 | 75 | 1016.8 |
| 20260504035501 | 2 | 146 | 0.0 | 0.0 | 0.00 | 0.00 | 0.00 | 75 | 1016.8 |
| 20260504034946 | 3 | 146 | 0.0 | 0.0 | 0.00 | 0.00 | 0.00 | 75 | 1016.8 |
| 20260504034528 | 3 | 146 | 0.0 | 0.0 | 0.00 | 0.00 | 0.00 | 74 | 1017.8 |
| 20260504034437 | 3 | 146 | 0.0 | 0.0 | 0.00 | 0.00 | 0.00 | 74 | 1016.8 |
| 20260504033928 | 3 | 146 | 0.0 | 0.0 | 0.00 | 0.00 | 0.00 | 74 | 1016.6 |
| 20260504033419 | 3 | 146 | 0.0 | 0.0 | 0.00 | 0.00 | 0.00 | 74 | 1016.7 |
| 20260504033059 | 3 | 146 | 0.0 | 0.0 | 0.00 | 0.00 | 0.00 | 73 | 1017.8 |
| 20260504032918 | 3 | 146 | 0.0 | 0.0 | 0.00 | 0.00 | 0.00 | 73 | 1016.7 |
| 20260504032408 | 3 | 146 | 0.0 | 0.0 | 0.00 | 0.00 | 0.00 | 73 | 1016.7 |
| 20260504031854 | 3 | 146 | 0.0 | 0.0 | 0.00 | 0.00 | 0.00 | 72 | 1016.7 |
| 20260504031617 | 3 | 146 | 0.0 | 0.0 | 0.00 | 0.00 | 0.00 | 71 | 1016.7 |
| 20260504031526 | 3 | 146 | 0.0 | 0.0 | 0.00 | 0.00 | 0.00 | 71 | 1017.8 |
| 20260504030834 | 3 | 146 | 0.0 | 0.0 | 0.00 | 0.00 | 0.00 | 71 | 1016.7 |
| 20260504030556 | 3 | 146 | 0.0 | 0.0 | 0.00 | 0.00 | 0.00 | 71 | 1016.8 |
| 20260504030058 | 3 | 146 | 0.0 | 0.0 | 0.00 | 0.00 | 0.00 | 71 | 1017.9 |
| 20260504025816 | 3 | 146 | 0.0 | 0.0 | 0.00 | 0.00 | 0.00 | 70 | 1016.8 |
| 20260504025304 | 4 | 146 | 0.0 | 0.0 | 0.00 | 0.00 | 0.00 | 70 | 1016.9 |
| 20260504024750 | 4 | 146 | 0.0 | 0.0 | 0.00 | 0.00 | 0.00 | 69 | 1016.7 |
| 20260504024524 | 4 | 146 | 0.0 | 0.0 | 0.00 | 0.00 | 0.00 | 69 | 1017.7 |
| 20260504024240 | 4 | 146 | 0.0 | 0.0 | 0.00 | 0.00 | 0.00 | 69 | 1016.7 |
| 20260504023723 | 4 | 146 | 0.0 | 0.0 | 0.00 | 0.00 | 0.00 | 68 | 1016.6 |
| 20260504023212 | 5 | 146 | 0.0 | 0.0 | 0.00 | 0.00 | 0.00 | 68 | 1016.6 |
| 20260504023049 | 5 | 146 | 0.0 | 0.0 | 0.00 | 0.00 | 0.00 | 68 | 1017.6 |
| 20260504022934 | 5 | 146 | 0.0 | 0.0 | 0.00 | 0.00 | 0.00 | 67 | 1016.5 |
| 20260504022152 | 5 | 146 | 0.0 | 0.0 | 0.00 | 0.00 | 0.00 | 66 | 1016.5 |
| 20260504021639 | 5 | 146 | 0.0 | 0.0 | 0.00 | 0.00 | 0.00 | 66 | 1016.6 |
| 20260504021513 | 5 | 146 | 0.0 | 0.0 | 0.00 | 0.00 | 0.00 | 66 | 1017.5 |
| 20260504021128 | 5 | 146 | 0.0 | 0.0 | 0.00 | 0.00 | 0.00 | 65 | 1016.5 |
| 20260504020611 | 5 | 146 | 0.0 | 0.0 | 0.00 | 0.00 | 0.00 | 64 | 1016.4 |
| 20260504020100 | 6 | 146 | 0.0 | 0.0 | 0.00 | 0.00 | 0.00 | 63 | 1016.5 |
| 20260504020040 | 5 | 146 | 0.0 | 0.0 | 0.00 | 0.00 | 0.00 | 63 | 1017.4 |
| 20260504015820 | 6 | 146 | 0.0 | 0.0 | 0.00 | 0.00 | 0.00 | 62 | 1016.4 |
| 20260504015042 | 6 | 146 | 0.0 | 0.0 | 0.00 | 0.00 | 0.00 | 62 | 1016.4 |
| 20260504014526 | 6 | 146 | 0.0 | 0.0 | 0.00 | 0.00 | 0.00 | 61 | 1016.4 |
| 20260504014510 | 6 | 146 | 0.0 | 0.0 | 0.00 | 0.00 | 0.00 | 61 | 1017.3 |
| 20260504014247 | 6 | 146 | 0.0 | 0.0 | 0.00 | 0.00 | 0.00 | 60 | 1016.3 |
| 20260504013506 | 6 | 146 | 0.0 | 1.6 | 0.00 | 0.00 | 0.00 | 59 | 1016.2 |
| 20260504013041 | 7 | 146 | 0.0 | 1.6 | 0.00 | 0.00 | 0.00 | 59 | 1017.1 |
| 20260504012959 | 7 | 146 | 0.0 | 1.6 | 0.00 | 0.00 | 0.00 | 58 | 1016.2 |
| 20260504012458 | 7 | 146 | 0.0 | 3.2 | 0.00 | 0.00 | 0.00 | 57 | 1016.1 |
| 20260504011949 | 7 | 146 | 1.6 | 3.2 | 0.00 | 0.00 | 0.00 | 56 | 1016.2 |
| 20260504011514 | 7 | 146 | 1.6 | 3.2 | 0.00 | 0.00 | 0.00 | 56 | 1017.1 |
| 20260504011434 | 7 | 146 | 0.0 | 3.2 | 0.00 | 0.00 | 0.00 | 56 | 1016.2 |
| 20260504011157 | 7 | 220 | 0.0 | 1.6 | 0.00 | 0.00 | 0.00 | 56 | 1016.2 |
| 20260504010415 | 8 | 220 | 0.0 | 1.6 | 0.00 | 0.00 | 0.00 | 55 | 1016.1 |
| 20260504010101 | 8 | 220 | 0.0 | 1.6 | 0.00 | 0.00 | 0.00 | 53 | 1017.0 |
| 20260504005915 | 8 | 220 | 0.0 | 1.6 | 0.00 | 0.00 | 0.00 | 53 | 1016.0 |
| 20260504005405 | 8 | 220 | 0.0 | 0.0 | 0.00 | 0.00 | 0.00 | 54 | 1016.0 |
| 20260504004854 | 9 | 220 | 0.0 | 0.0 | 0.00 | 0.00 | 0.00 | 49 | 1016.0 |
| 20260504004528 | 10 | 220 | 0.0 | 0.0 | 0.00 | 0.00 | 0.00 | 47 | 1016.7 |
| 20260504004341 | 10 | 220 | 0.0 | 1.6 | 0.00 | 0.00 | 0.00 | 46 | 1015.8 |
| 20260504003829 | 10 | 220 | 0.0 | 1.6 | 0.00 | 0.00 | 0.00 | 46 | 1015.8 |
| 20260504003318 | 11 | 220 | 0.0 | 3.2 | 0.00 | 0.00 | 0.00 | 45 | 1015.9 |
| 20260504003053 | 11 | 220 | 0.0 | 3.2 | 0.00 | 0.00 | 0.00 | 44 | 1016.8 |
| 20260504002808 | 11 | 220 | 1.6 | 4.8 | 0.00 | 0.00 | 0.00 | 42 | 1015.8 |
| 20260504002250 | 11 | 221 | 1.6 | 6.4 | 0.00 | 0.00 | 0.00 | 40 | 1015.8 |
| 20260504001741 | 12 | 232 | 3.2 | 14.5 | 0.00 | 0.00 | 0.00 | 37 | 1015.7 |
| 20260504001514 | 12 | 232 | 1.6 | 12.9 | 0.00 | 0.00 | 0.00 | 37 | 1016.7 |
| 20260504001459 | 12 | 220 | 4.8 | 14.5 | 0.00 | 0.00 | 0.00 | 35 | 1015.7 |
| 20260504000948 | 12 | 240 | 4.8 | 12.9 | 0.00 | 0.00 | 0.00 | 35 | 1015.7 |
| 20260504000158 | 12 | 213 | 6.4 | 12.9 | 0.00 | 0.00 | 0.00 | 34 | 1015.7 |
| 20260504000033 | 12 | 210 | 3.2 | 12.9 | 0.00 | 0.00 | 0.00 | 34 | 1016.6 |
| 20260503235647 | 12 | 233 | 4.8 | 12.9 | 0.00 | 0.00 | 0.00 | 34 | 1015.7 |
| 20260503235136 | 12 | 213 | 4.8 | 9.7 | 0.00 | 0.00 | 0.00 | 34 | 1015.7 |
| 20260503234627 | 12 | 215 | 6.4 | 11.3 | 0.00 | 0.00 | 0.00 | 34 | 1015.7 |
| 20260503234502 | 12 | 232 | 4.8 | 14.5 | 0.00 | 0.00 | 0.00 | 34 | 1016.7 |
| 20260503234113 | 12 | 277 | 6.4 | 17.7 | 0.00 | 0.00 | 0.00 | 33 | 1015.8 |
| 20260503233602 | 13 | 242 | 6.4 | 17.7 | 0.00 | 0.00 | 0.00 | 33 | 1015.7 |
| 20260503233052 | 13 | 211 | 8.0 | 16.1 | 0.00 | 0.00 | 0.00 | 33 | 1015.7 |
| 20260503233029 | 13 | 173 | 6.4 | 16.1 | 0.00 | 0.00 | 0.00 | 33 | 1016.7 |
| 20260503232542 | 13 | 257 | 8.0 | 16.1 | 0.00 | 0.00 | 0.00 | 34 | 1015.7 |
| 20260503232034 | 13 | 238 | 6.4 | 16.1 | 0.00 | 0.00 | 0.00 | 32 | 1015.7 |
| 20260503231602 | 13 | 209 | 4.8 | 16.1 | 0.00 | 0.00 | 0.00 | 33 | 1016.7 |
| 20260503231522 | 13 | 221 | 8.0 | 17.7 | 0.00 | 0.00 | 0.00 | 34 | 1015.8 |
| 20260503231008 | 13 | 240 | 11.3 | 29.0 | 0.00 | 0.00 | 0.00 | 33 | 1015.8 |
| 20260503230729 | 13 | 252 | 8.0 | 29.0 | 0.00 | 0.00 | 0.00 | 32 | 1015.7 |
| 20260503230028 | 13 | 212 | 8.0 | 16.1 | 0.00 | 0.00 | 0.00 | 32 | 1016.7 |
| 20260503225949 | 13 | 238 | 6.4 | 17.7 | 0.00 | 0.00 | 0.00 | 34 | 1015.7 |
| 20260503225440 | 13 | 252 | 6.4 | 17.7 | 0.00 | 0.00 | 0.00 | 35 | 1015.8 |
| 20260503224926 | 13 | 211 | 6.4 | 17.7 | 0.00 | 0.00 | 0.00 | 33 | 1015.8 |
| 20260503224558 | 13 | 238 | 3.2 | 16.1 | 0.00 | 0.00 | 0.00 | 34 | 1016.9 |
| 20260503224417 | 13 | 263 | 6.4 | 17.7 | 0.00 | 0.00 | 0.00 | 34 | 1015.9 |
| 20260503223902 | 13 | 263 | 6.4 | 17.7 | 0.00 | 0.00 | 0.00 | 33 | 1015.9 |
| 20260503223352 | 13 | 277 | 6.4 | 17.7 | 0.00 | 0.00 | 0.00 | 32 | 1015.8 |
| 20260503223028 | 13 | 180 | 6.4 | 17.7 | 0.00 | 0.00 | 0.00 | 33 | 1016.9 |
| 20260503222846 | 13 | 169 | 6.4 | 22.5 | 0.00 | 0.00 | 0.00 | 34 | 1015.9 |
| 20260503222344 | 13 | 247 | 9.7 | 22.5 | 0.00 | 0.00 | 0.00 | 33 | 1015.9 |
| 20260503222111 | 13 | 277 | 8.0 | 20.9 | 0.00 | 0.00 | 0.00 | 32 | 1016.0 |
| 20260503221519 | 13 | 239 | 11.3 | 16.1 | 0.00 | 0.00 | 0.00 | 33 | 1017.0 |
| 20260503221338 | 14 | 258 | 4.8 | 16.1 | 0.00 | 0.00 | 0.00 | 33 | 1016.0 |
| 20260503220826 | 13 | 295 | 9.7 | 19.3 | 0.00 | 0.00 | 0.00 | 34 | 1015.9 |
| 20260503220317 | 13 | 238 | 9.7 | 19.3 | 0.00 | 0.00 | 0.00 | 33 | 1015.9 |
| 20260503220053 | 13 | 227 | 11.3 | 19.3 | 0.00 | 0.00 | 0.00 | 33 | 1017.1 |
| 20260503215810 | 14 | 229 | 8.0 | 19.3 | 0.00 | 0.00 | 0.00 | 32 | 1015.9 |
| 20260503215304 | 14 | 230 | 9.7 | 19.3 | 0.00 | 0.00 | 0.00 | 32 | 1015.9 |
| 20260503214759 | 14 | 287 | 6.4 | 22.5 | 0.00 | 0.00 | 0.00 | 33 | 1016.0 |
| 20260503214542 | 14 | 300 | 6.4 | 20.9 | 0.00 | 0.00 | 0.00 | 32 | 1017.0 |
| 20260503214524 | 14 | 168 | 4.8 | 17.7 | 0.00 | 0.00 | 0.00 | 31 | 1016.0 |
| 20260503213744 | 14 | 281 | 8.0 | 19.3 | 0.00 | 0.00 | 0.00 | 32 | 1016.0 |
| 20260503213236 | 14 | 231 | 9.7 | 24.1 | 0.00 | 0.00 | 0.00 | 32 | 1015.9 |
| 20260503213013 | 14 | 153 | 11.3 | 24.1 | 0.00 | 0.00 | 0.00 | 31 | 1017.1 |
| 20260503212733 | 14 | 236 | 8.0 | 20.9 | 0.00 | 0.00 | 0.00 | 32 | 1016.0 |
| 20260503212457 | 14 | 204 | 4.8 | 19.3 | 0.00 | 0.00 | 0.00 | 30 | 1016.0 |
| 20260503212340 | 15 | 33 | 6.4 | 16.1 | 0.00 | 0.00 | 0.00 | 32 | 1016.0 |
| 20260503211621 | 14 | 221 | 1.6 | 16.1 | 0.00 | 0.00 | 0.00 | 33 | 1017.1 |
| 20260503211213 | 14 | 254 | 8.0 | 22.5 | 0.00 | 0.00 | 0.00 | 31 | 1016.0 |
| 20260503210702 | 14 | 185 | 8.0 | 22.5 | 0.00 | 0.00 | 0.00 | 31 | 1016.1 |
| 20260503210157 | 14 | 213 | 9.7 | 20.9 | 0.00 | 0.00 | 0.00 | 31 | 1016.1 |
| 20260503210035 | 14 | 208 | 4.8 | 17.7 | 0.00 | 0.00 | 0.00 | 32 | 1017.2 |
| 20260503205652 | 14 | 231 | 9.7 | 27.4 | 0.00 | 0.00 | 0.00 | 31 | 1016.0 |
| 20260503205146 | 14 | 244 | 8.0 | 27.4 | 0.00 | 0.00 | 0.00 | 31 | 1016.0 |
| 20260503204914 | 14 | 268 | 9.7 | 24.1 | 0.00 | 0.00 | 0.00 | 31 | 1016.0 |
| 20260503204519 | 14 | 65 | 4.8 | 24.1 | 0.00 | 0.00 | 0.00 | 32 | 1017.1 |
| 20260503204408 | 14 | 188 | 9.7 | 22.5 | 0.00 | 0.00 | 0.00 | 29 | 1016.2 |
| 20260503203620 | 14 | 196 | 8.0 | 24.1 | 0.00 | 0.00 | 0.00 | 30 | 1016.3 |
| 20260503203118 | 14 | 242 | 8.0 | 24.1 | 0.00 | 0.00 | 0.00 | 35 | 1016.3 |
| 20260503203106 | 14 | 229 | 4.8 | 24.1 | 0.00 | 0.00 | 0.00 | 35 | 1017.5 |
| 20260503202614 | 14 | 292 | 9.7 | 24.1 | 0.00 | 0.00 | 0.00 | 32 | 1016.4 |
| 20260503202105 | 14 | 300 | 11.3 | 24.1 | 0.00 | 0.00 | 0.00 | 32 | 1016.6 |
| 20260503201557 | 14 | 179 | 9.7 | 22.5 | 0.00 | 0.00 | 0.00 | 34 | 1016.6 |
| 20260503201538 | 13 | 224 | 4.8 | 22.5 | 0.00 | 0.00 | 0.00 | 34 | 1017.7 |
| 20260503201050 | 14 | 243 | 6.4 | 22.5 | 0.00 | 0.00 | 0.00 | 30 | 1016.7 |
| 20260503200539 | 14 | 273 | 4.8 | 20.9 | 0.00 | 0.00 | 0.00 | 32 | 1016.7 |
| 20260503200030 | 14 | 293 | 4.8 | 20.9 | 0.00 | 0.00 | 0.00 | 32 | 1016.8 |
| 20260503200007 | 14 | 293 | 4.8 | 20.9 | 0.00 | 0.00 | 0.00 | 32 | 1018.0 |
| 20260503195519 | 13 | 208 | 6.4 | 20.9 | 0.00 | 0.00 | 0.00 | 36 | 1016.8 |
| 20260503195011 | 13 | 160 | 8.0 | 20.9 | 0.00 | 0.00 | 0.00 | 33 | 1016.9 |
| 20260503194541 | 13 | 159 | 6.4 | 32.2 | 0.00 | 0.00 | 0.00 | 33 | 1018.1 |
| 20260503194502 | 13 | 229 | 12.9 | 32.2 | 0.00 | 0.00 | 0.00 | 32 | 1017.0 |
| 20260503193952 | 13 | 207 | 9.7 | 32.2 | 0.00 | 0.00 | 0.00 | 33 | 1017.0 |
| 20260503193438 | 13 | 236 | 6.4 | 16.1 | 0.00 | 0.00 | 0.00 | 31 | 1016.9 |
| 20260503193159 | 13 | 252 | 8.0 | 19.3 | 0.00 | 0.00 | 0.00 | 32 | 1017.1 |
| 20260503193008 | 13 | 279 | 4.8 | 17.7 | 0.00 | 0.00 | 0.00 | 32 | 1018.1 |
| 20260503192418 | 13 | 291 | 4.8 | 19.3 | 0.00 | 0.00 | 0.00 | 31 | 1017.3 |
| 20260503191900 | 13 | 288 | 6.4 | 17.7 | 0.00 | 0.00 | 0.00 | 39 | 1017.1 |
| 20260503191533 | 13 | 267 | 3.2 | 19.3 | 0.00 | 0.00 | 0.00 | 36 | 1018.5 |
| 20260503191351 | 13 | 257 | 8.0 | 22.5 | 0.00 | 0.00 | 0.00 | 34 | 1017.4 |
| 20260503190839 | 13 | 263 | 8.0 | 22.5 | 0.00 | 0.00 | 0.00 | 32 | 1017.5 |
| 20260503190327 | 13 | 182 | 4.8 | 20.9 | 0.00 | 0.00 | 0.00 | 31 | 1017.5 |
| 20260503190059 | 13 | 298 | 4.8 | 16.1 | 0.00 | 0.00 | 0.00 | 32 | 1018.6 |
| 20260503185815 | 13 | 286 | 4.8 | 17.7 | 0.00 | 0.00 | 0.00 | 32 | 1017.5 |
| 20260503185306 | 13 | 342 | 8.0 | 20.9 | 0.00 | 0.00 | 0.00 | 34 | 1017.5 |
| 20260503184756 | 13 | 287 | 6.4 | 20.9 | 0.00 | 0.00 | 0.00 | 32 | 1017.7 |
| 20260503184530 | 13 | 185 | 8.0 | 20.9 | 0.00 | 0.00 | 0.00 | 34 | 1018.7 |
| 20260503184246 | 13 | 226 | 4.8 | 12.9 | 0.00 | 0.00 | 0.00 | 36 | 1017.6 |
| 20260503183736 | 12 | 281 | 6.4 | 20.9 | 0.00 | 0.00 | 0.00 | 36 | 1017.7 |
| 20260503183224 | 12 | 240 | 8.0 | 20.9 | 0.00 | 0.00 | 0.00 | 32 | 1018.0 |
| 20260503183106 | 12 | 212 | 8.0 | 19.3 | 0.00 | 0.00 | 0.00 | 32 | 1019.1 |
| 20260503182711 | 12 | 38 | 6.4 | 17.7 | 0.00 | 0.00 | 0.00 | 36 | 1017.9 |
| 20260503182202 | 12 | 186 | 4.8 | 17.7 | 0.00 | 0.00 | 0.00 | 34 | 1018.0 |
| 20260503181923 | 12 | 285 | 4.8 | 17.7 | 0.00 | 0.00 | 0.00 | 34 | 1018.0 |
| 20260503181527 | 12 | 259 | 4.8 | 17.7 | 0.00 | 0.00 | 0.00 | 37 | 1019.1 |
| 20260503181141 | 12 | 335 | 6.4 | 19.3 | 0.00 | 0.00 | 0.00 | 35 | 1018.0 |
| 20260503180629 | 12 | 85 | 6.4 | 19.3 | 0.00 | 0.00 | 0.00 | 37 | 1018.1 |
| 20260503180117 | 12 | 256 | 6.4 | 14.5 | 0.00 | 0.00 | 0.00 | 37 | 1018.0 |
| 20260503180053 | 12 | 240 | 4.8 | 16.1 | 0.00 | 0.00 | 0.00 | 40 | 1019.2 |
| 20260503175834 | 11 | 183 | 8.0 | 20.9 | 0.00 | 0.00 | 0.00 | 40 | 1018.2 |
| 20260503175054 | 11 | 238 | 4.8 | 20.9 | 0.00 | 0.00 | 0.00 | 35 | 1018.3 |
| 20260503174543 | 11 | 282 | 6.4 | 20.9 | 0.00 | 0.00 | 0.00 | 34 | 1018.2 |
| 20260503174523 | 11 | 284 | 3.2 | 20.9 | 0.00 | 0.00 | 0.00 | 34 | 1019.4 |
| 20260503174033 | 11 | 301 | 9.7 | 20.9 | 0.00 | 0.00 | 0.00 | 33 | 1018.4 |
| 20260503173523 | 11 | 163 | 8.0 | 16.1 | 0.00 | 0.00 | 0.00 | 37 | 1018.3 |
| 20260503173240 | 11 | 184 | 6.4 | 16.1 | 0.00 | 0.00 | 0.00 | 38 | 1018.5 |
| 20260503173103 | 11 | 245 | 8.0 | 16.1 | 0.00 | 0.00 | 0.00 | 37 | 1019.7 |
| 20260503172721 | 11 | 173 | 8.0 | 16.1 | 0.00 | 0.00 | 0.00 | 37 | 1018.5 |
| 20260503172212 | 11 | 241 | 8.0 | 20.9 | 0.00 | 0.00 | 0.00 | 38 | 1018.6 |
| 20260503171703 | 11 | 254 | 6.4 | 19.3 | 0.00 | 0.00 | 0.00 | 37 | 1018.8 |
| 20260503171517 | 11 | 170 | 11.3 | 20.9 | 0.00 | 0.00 | 0.00 | 34 | 1019.9 |
| 20260503170921 | 11 | 242 | 6.4 | 19.3 | 0.00 | 0.00 | 0.00 | 37 | 1018.8 |
| 20260503170643 | 11 | 227 | 4.8 | 16.1 | 0.00 | 0.00 | 0.00 | 38 | 1018.8 |
| 20260503160214 | 10 | 334 | 4.8 | 17.7 | 0.00 | 0.00 | 0.00 | 34 | 1019.6 |
| 20260503150513 | 8 | 58 | 4.8 | 14.5 | 0.00 | 0.00 | 0.00 | 38 | 1019.6 |